AF1HS Weather Reports


Display with metric or nautical units.
time (UTC)temp
F
wind
direction
speed
MPH
gust
MPH
rain 1hr
in
rain 24hr
in
rain mn
in
humidity
%
barometer
mb
20180619044645 69 167 0.0 0.0 0.00 0.00 0.00 72 1002.0
20180619043652 69 170 1.0 2.0 0.00 0.00 0.00 72 1002.5
20180619042650 69 190 0.0 3.0 0.00 0.00 0.00 71 1003.0
20180619041521 69 211 1.0 3.0 0.00 0.00 0.00 71 1003.0
20180619041031 69 160 0.0 2.0 0.00 0.00 0.00 70 1003.0
20180619040730 69 171 1.0 0.0 0.00 0.00 0.00 69 1003.0
20180619035652 69 179 0.0 3.0 0.00 0.00 0.00 69 1003.0
20180619034637 69 167 0.0 6.0 0.00 0.00 0.00 69 1004.0
20180619033642 69 212 0.0 5.0 0.00 0.00 0.00 70 1004.0
20180619032649 69 198 2.0 6.0 0.00 0.00 0.00 70 1004.0
20180619031642 69 200 4.0 6.0 0.00 0.00 0.00 72 1004.0
20180619030644 70 188 2.0 6.0 0.00 0.00 0.00 75 1004.0
20180619025700 70 197 3.0 6.0 0.00 0.00 0.00 76 1004.0
20180619024657 70 197 3.0 8.0 0.00 0.00 0.00 78 1005.0
20180619023644 71 202 2.0 8.0 0.00 0.00 0.00 79 1005.0
20180619022644 71 194 2.0 3.0 0.00 0.00 0.00 78 1005.0
20180619021656 71 190 0.0 3.0 0.00 0.00 0.00 76 1005.0
20180619020656 71 195 2.0 3.0 0.00 0.00 0.00 76 1005.0
20180619015652 71 186 0.0 2.0 0.00 0.00 0.00 75 1005.0
20180619014641 71 209 1.0 3.0 0.00 0.00 0.00 75 1005.0
20180619013703 71 185 1.0 3.0 0.00 0.00 0.00 74 1005.0
20180619012643 71 182 0.0 0.0 0.00 0.00 0.00 72 1004.0
20180619011703 71 182 0.0 3.0 0.00 0.00 0.00 72 1004.0
20180619010642 72 186 2.0 6.0 0.00 0.00 0.00 70 1004.0
20180619005651 73 197 3.0 13.0 0.00 0.00 0.00 69 1004.0
20180619004152 74 180 5.0 12.0 0.00 0.00 0.00 64 1005.0
20180619003351 73 167 5.0 6.0 0.00 0.00 0.00 62 1004.0
20180619002729 73 188 5.0 6.0 0.00 0.00 0.00 63 1004.0
20180619002230 73 206 6.0 8.0 0.00 0.00 0.00 62 1004.3
20180619000642 73 168 6.0 10.0 0.00 0.00 0.00 63 1004.6
20180618235639 73 188 4.0 7.0 0.00 0.00 0.00 63 1004.0
20180618234656 74 164 5.0 7.0 0.00 0.00 0.00 63 1005.0
20180618233638 74 177 5.0 9.0 0.00 0.00 0.00 63 1005.0
20180618232641 74 157 2.0 8.0 0.00 0.00 0.00 63 1005.0
20180618231726 74 172 5.0 8.0 0.00 0.00 0.00 62 1005.0
20180618230705 75 160 6.0 9.0 0.00 0.00 0.00 62 1005.0
20180618225837 75 131 6.0 8.0 0.00 0.00 0.00 61 1005.0
20180618224720 76 169 6.0 10.0 0.00 0.00 0.00 61 1005.0
20180618223641 76 169 7.0 8.0 0.00 0.00 0.00 61 1005.0
20180618222638 77 182 6.0 12.0 0.00 0.00 0.00 60 1005.0
20180618221640 78 198 7.0 13.0 0.00 0.00 0.00 59 1005.0
20180618220642 78 181 6.0 10.0 0.00 0.00 0.00 60 1005.0
20180618220136 78 157 5.0 10.0 0.00 0.00 0.00 59 1005.0
20180618215143 78 175 6.0 9.0 0.00 0.00 0.00 59 1005.3
20180618214147 78 186 5.0 10.0 0.00 0.00 0.00 59 1006.0
20180618213145 79 181 6.0 12.0 0.00 0.00 0.00 59 1006.0
20180618212145 79 162 5.0 10.0 0.00 0.00 0.00 58 1006.0
20180618211144 79 189 5.0 10.0 0.00 0.00 0.00 58 1006.0
20180618205641 81 181 8.0 10.0 0.00 0.00 0.00 56 1006.0
20180618204645 81 185 7.0 13.0 0.00 0.00 0.00 56 1006.0
20180618203650 82 165 6.0 14.0 0.00 0.00 0.00 56 1006.1
20180618202653 81 158 7.0 13.0 0.00 0.00 0.00 56 1007.0
20180618201641 83 185 10.0 15.0 0.00 0.00 0.00 55 1007.0
20180618200638 83 179 5.0 13.0 0.00 0.00 0.00 56 1007.0
20180618195656 83 165 6.0 13.0 0.00 0.00 0.00 56 1007.0
20180618194649 83 184 7.0 12.0 0.00 0.00 0.00 56 1007.0
20180618193639 83 219 6.0 10.0 0.00 0.00 0.00 56 1007.0
20180618192644 82 194 7.0 13.0 0.00 0.00 0.00 57 1007.0
20180618191642 85 210 8.0 13.0 0.00 0.00 0.00 55 1008.0
20180618190631 84 197 6.0 15.0 0.00 0.00 0.00 56 1008.0
20180618185656 84 205 6.0 10.0 0.00 0.00 0.00 56 1008.0
20180618184656 84 225 6.0 10.0 0.00 0.00 0.00 56 1008.0
20180618183633 84 167 6.0 9.0 0.00 0.00 0.00 56 1008.0
20180618182638 84 197 7.0 12.0 0.00 0.00 0.00 57 1008.0
20180618181640 84 154 9.0 20.0 0.00 0.00 0.00 56 1008.0
20180618180138 86 182 5.0 13.0 0.00 0.00 0.00 56 1009.0
20180618175159 85 207 8.0 13.0 0.00 0.00 0.00 56 1009.0